Regional Weather Roundup
Issued by NWS

Home | Current Version | Previous Version | Text Only | Print | Product List | Glossary Off
Versions: 1 2 3 4 5 6 7 8 9 10 11 12 13 14 15 16 17 18 19 20 21 22 23 24 25 26 27 28 29 30 31 32 33 34 35 36 37 38 39 40 41 42 43 44 45 46 47 48 49 50

995
ASUS43 KFSD 252110
RWRSD

WEATHER ROUNDUP FOR SOUTH DAKOTA
NATIONAL WEATHER SERVICE SIOUX FALLS SD
400 PM CDT MON JUL 25 2016

NOTE: "FAIR" INDICATES FEW OR NO CLOUDS BELOW 12,000 FEET WITH NO
SIGNIFICANT WEATHER AND/OR OBSTRUCTIONS TO VISIBILITY.


SDZ001>005-009-010-012>017-252200-
NORTHWEST AND NORTH CENTRAL SOUTH DAKOTA

CITY           SKY/WX    TMP DP  RH WIND       PRES   REMARKS
BUFFALO          N/A     99  41  13 VRB7      29.91F
FAITH            N/A     96  49  20 S16G24    29.97F
MOBRIDGE       SUNNY    100  51  19 S17       29.91F HX  97
$$

SDZ012>016-024>037-041>051-057-063-072>074-252200-
SOUTHWEST AND SOUTH CENTRAL SOUTH DAKOTA

CITY           SKY/WX    TMP DP  RH WIND       PRES   REMARKS
RAPID CTY ARPT CLOUDY    88  55  32 S15G22    30.01F
PIERRE         SUNNY     97  44  16 S23G33    29.96F
CUSTER         SUNNY     83  52  34 S10G18    30.19S
PHILIP         SUNNY     97  54  23 S13G22    29.97F HX  95
PINE RIDGE     LGT RAIN  91  55  29 S14G25    30.05F
WINNER         FAIR      96  44  16 S18       30.04F
$$

SDZ004>011-016>023-039-040-252200-
NORTHEAST SOUTH DAKOTA

CITY           SKY/WX    TMP DP  RH WIND       PRES   REMARKS
ABERDEEN       SUNNY     93  56  28 S16G22    29.98F
WATERTOWN      SUNNY     87  59  38 S15G22    30.06F
BROOKINGS      SUNNY     84  60  44 S10       30.08F
SISSETON         N/A     89  59  36 SW14G21   29.99F
$$

SDZ017-020-022-023-036>040-048>070-252200-
SOUTHEAST SOUTH DAKOTA

CITY           SKY/WX    TMP DP  RH WIND       PRES   REMARKS
SIOUX FALLS    SUNNY     85  61  44 SW7       30.08F
HURON          SUNNY     90  56  31 S16G25    30.02F
CHAMBERLAIN    SUNNY     92  54  27 S20       30.03F
MITCHELL       SUNNY     89  57  33 S13G25    30.04F
YANKTON        SUNNY     88  57  35 S13       30.05F
$$

ABBREVIATIONS USED IN REMARKS
   TC - TEMPERATURE IN CELSIUS
  WCI - WIND CHILL INDEX
   HX - HEAT INDEX
  VSB - VISIBILITY





USA.gov is the U.S. government's official web portal to all federal, state and local government web resources and services.